This is the latest recevied weather packets stored in our database for station/object AB4CZ-1. If no packets are shown the sender has not sent any weather packets the latest 1 day(s).
| Time | Temp. | Humidity | Pressure | Rain* | Wind** | Luminosity | Snow |
|---|---|---|---|---|---|---|---|
| 1778056045 | 20.56° C | 73% | 1012.9 hPa | 0 mm | 0 m/s | - | - |
| 1778055996 | 20.56° C | 73% | 1012.9 hPa | 0 mm | 0 m/s | - | - |
| 1778055394 | 20.56° C | 72% | 1013.1 hPa | 0 mm | 0 m/s | - | - |
| 1778055102 | 21.11° C | 72% | 1012.9 hPa | 0 mm | 0 m/s | - | - |
| 1778052993 | 21.11° C | 71% | 1013.4 hPa | 0 mm | 0 m/s | - | - |
| 1778051793 | 21.11° C | 70% | 1013.5 hPa | 0 mm | 0 m/s | - | - |
| 1778051196 | 21.11° C | 67% | 1013.6 hPa | 0 mm | 0 m/s | - | - |
| 1778050106 | 21.67° C | 62% | 1013.7 hPa | 0 mm | 0 m/s | - | - |
| 1778049994 | 21.67° C | 62% | 1013.7 hPa | 0 mm | 0 m/s | - | - |
| 1778049092 | 21.67° C | 59% | 1014.1 hPa | 0 mm | 0 m/s | - | - |
| 1778048795 | 21.67° C | 58% | 1014.2 hPa | 0 mm | 0 m/s | - | - |
| 1778048505 | 21.67° C | 58% | 1014.1 hPa | 0 mm | 0 m/s | - | - |
| 1778048192 | 21.67° C | 58% | 1014.1 hPa | 0 mm | 0 m/s | - | - |
| 1778046700 | 21.67° C | 56% | 1014.1 hPa | 0 mm | 0 m/s | - | - |
| 1778046570 | 21.67° C | 55% | 1014.1 hPa | 0 mm | 0 m/s | - | - |
| 1778046392 | 21.67° C | 55% | 1014.1 hPa | 0 mm | 0 m/s | - | - |
| 1778045793 | 21.67° C | 54% | 1013.9 hPa | 0 mm | 0 m/s | - | - |
| 1778045193 | 21.67° C | 54% | 1014.1 hPa | 0 mm | 0 m/s | - | - |
| 1778044592 | 21.67° C | 53% | 1014 hPa | 0 mm | 0 m/s | - | - |
| 1778044433 | 21.67° C | 55% | 1014.1 hPa | 0 mm | 0 m/s | - | - |
| 1778044429 | 21.67° C | 56% | 1013.9 hPa | 0 mm | 0 m/s | - | - |
| 1778044293 | 21.67° C | 55% | 1014.1 hPa | 0 mm | 0 m/s | - | - |
| 1778043995 | 21.67° C | 56% | 1013.9 hPa | 0 mm | 0 m/s | - | - |
| 1778043704 | 21.11° C | 56% | 1013.7 hPa | 0 mm | 0 m/s | - | - |
| 1778043492 | 21.11° C | 54% | 1013.8 hPa | 0 mm | 0 m/s | - | - |
* Rain latest hour (hover to see other rain measurements)
** Current wind speed in m/s (hover to see current wind gust speed)